Lapse_Rate
5.9 6.1 5.6 5.4 5.6 6.1 6.4 6.6 6.1 5.5 5.5 5.9 5.6 5.2 4.8 4.4 4.4 4.3 4.2 4.0 3.9 4.3 4.9 4.9 4.9 4.9 4.9 5.1 5.3 5.4 5.5 6.0 6.2 6.5 6.7 6.7 6.7 6.9 7.1 7.0 6.4 6.1 5.5 6.5
6.3 6.3 6.2 6.4 5.8 6.0 6.4 6.6 6.1 5.5 5.7 5.8 5.6 5.4 4.9 4.6 4.4 4.2 4.2 4.0 3.7 3.5 3.5 4.1 4.6 4.9 4.7 4.8 5.0 4.9 4.8 5.0 5.5 5.8 5.9 6.4 6.5 6.6 6.7 6.7 6.8 6.8 6.0 6.0
6.4 6.1 6.4 6.1 5.8 6.0 6.1 6.0 5.7 5.9 5.3 5.5 5.8 5.9 5.4 4.8 4.7 4.5 4.3 4.1 4.0 3.8 3.7 3.5 4.1 4.2 4.4 4.5 4.7 5.0 4.9 4.8 4.7 4.9 5.3 5.4 5.8 6.2 6.4 6.5 6.7 6.8 6.9 6.2
6.0 5.8 5.1 5.4 6.0 5.6 6.0 6.1 6.0 5.3 6.1 7.6 6.0 8.1 6.2 5.4 5.3 4.8 4.5 4.2 4.0 3.8 3.7 3.6 3.6 4.0 4.2 4.4 4.5 4.7 4.9 5.0 4.8 4.7 4.7 4.8 5.2 5.4 5.8 6.1 6.2 6.6 6.7 6.4
5.1 4.7 4.8 5.0 5.9 5.8 5.4 6.0 5.0 5.4 6.4 6.6 6.7 7.3 6.1 5.7 5.8 5.3 4.8 4.4 4.1 4.0 3.9 3.8 3.8 4.2 4.1 4.5 4.7 4.8 5.0 5.1 5.0 4.9 4.7 4.7 4.7 5.0 5.3 5.5 5.6 5.9 6.5 6.5
6.0 5.9 5.8 5.7 5.7 5.8 5.9 5.0 5.2 5.6 6.4 7.1 6.9 6.7 7.5 6.5 5.7 5.4 5.1 4.8 4.5 4.4 4.2 4.1 4.1 4.0 4.0 4.7 5.0 4.8 4.9 4.9 5.3 5.1 4.9 4.8 4.7 4.7 4.9 5.1 5.3 5.4 5.6 6.2
4.8 5.4 5.7 5.9 4.9 5.0 5.1 5.4 6.5 6.9 6.9 7.6 6.0 6.3 6.3 5.6 5.4 5.3 5.1 5.0 4.9 4.7 4.4 4.2 4.2 4.3 4.2 4.0 4.9 5.0 4.8 4.8 4.9 5.1 5.2 5.1 4.9 4.8 4.8 4.9 5.3 5.4 5.5 5.5
5.6 5.1 5.3 5.7 5.6 5.0 5.0 5.5 6.0 6.4 8.2 8.5 6.1 7.3 5.9 5.7 5.6 5.5 5.3 5.4 5.0 4.7 4.4 4.3 4.3 4.4 4.2 3.9 4.2 5.3 5.7 6.1 6.0 6.0 6.1 6.2 5.7 5.3 5.2 5.0 5.1 5.5 5.6 5.8
5.2 4.6 5.4 5.5 5.5 5.5 5.1 5.4 5.6 5.3 5.7 6.5 8.2 6.5 6.3 5.8 5.7 5.6 5.5 5.2 5.0 4.6 4.5 4.5 4.4 4.3 4.1 3.9 3.8 6.2 7.1 7.5 7.4 7.5 7.2 7.1 7.1 6.6 6.1 5.8 5.7 5.5 5.7 5.8
5.4 4.4 4.3 5.3 5.4 5.4 5.2 5.6 5.3 5.1 5.9 6.3 8.2 7.9 7.3 6.3 6.1 5.8 5.7 5.3 5.1 4.9 4.8 4.6 4.6 4.3 4.1 4.1 4.3 5.9 7.4 7.4 7.5 7.5 7.6 7.5 7.2 7.3 7.1 6.8 6.6 6.5 6.5 6.1
5.6 5.4 4.4 5.1 4.7 5.0 5.0 5.0 5.1 5.1 5.6 6.8 7.7 8.8 7.0 6.5 6.0 5.8 5.6 5.3 5.1 5.0 4.9 4.8 4.7 4.5 4.4 4.5 5.1 5.7 7.1 7.2 7.2 7.2 7.2 7.3 7.4 7.2 7.2 7.2 7.1 7.0 7.0 7.0
5.5 5.3 5.1 5.1 5.3 5.4 4.8 5.0 5.0 5.3 5.2 5.9 6.4 7.0 6.2 6.2 5.8 5.6 5.6 5.4 5.1 5.1 4.9 4.8 4.9 4.7 4.7 4.9 5.3 5.8 6.8 7.2 7.3 7.2 7.1 7.0 7.1 7.4 7.3 7.3 7.4 7.3 7.2 7.2
5.3 4.7 4.8 4.9 4.6 5.2 4.9 4.9 5.4 5.4 5.2 5.8 6.4 7.7 6.2 5.8 5.9 5.9 5.7 5.5 5.3 5.2 5.1 5.0 5.0 4.9 4.9 5.0 5.3 5.8 6.5 7.0 7.2 7.3 7.3 7.2 7.1 7.1 7.2 7.3 7.3 7.3 7.3 7.2
5.4 5.2 5.6 6.0 5.7 5.7 5.5 5.4 5.4 5.3 4.9 5.7 6.6 6.8 7.1 6.5 6.5 6.2 5.9 5.7 5.5 5.4 5.3 5.2 5.1 5.1 5.0 5.1 5.5 6.4 6.7 7.0 7.1 7.2 7.3 7.4 7.3 7.2 7.1 7.1 7.2 7.2 7.3 7.2
5.3 5.4 5.5 5.6 5.7 5.3 5.0 5.1 4.8 5.4 5.3 5.2 6.9 6.9 6.9 6.8 6.5 6.2 5.8 5.7 5.5 5.6 5.6 5.4 5.3 5.1 5.1 5.1 5.1 5.8 6.4 6.9 7.1 7.1 7.2 7.1 7.3 7.5 7.5 7.2 7.0 6.9 6.9 7.0
5.5 5.1 5.3 5.8 5.6 5.2 5.3 5.8 5.6 5.3 4.9 4.9 5.4 6.1 6.1 6.2 5.9 5.8 5.7 5.6 5.6 5.7 5.6 5.5 5.4 5.2 5.1 5.2 5.1 5.4 6.3 6.7 6.9 7.0 7.1 7.1 7.0 7.0 7.3 7.5 7.4 7.2 7.0 6.7
5.2 4.9 5.1 5.1 5.1 5.0 5.6 6.3 5.9 6.1 5.9 5.7 5.7 6.0 6.1 5.9 5.8 5.7 5.7 5.7 5.7 5.7 5.6 5.5 5.6 5.4 5.2 5.2 5.2 5.5 6.1 6.2 6.6 6.8 6.9 6.9 6.9 6.8 6.7 7.1 7.3 7.3 7.3 7.1
4.6 4.4 4.4 4.5 4.6 5.2 6.4 6.4 6.0 6.1 5.9 5.8 5.8 5.9 5.7 5.6 5.7 5.7 5.6 5.4 5.4 5.5 5.5 5.5 5.5 5.4 5.3 5.2 5.5 5.6 6.1 6.3 6.5 6.7 6.8 6.8 6.9 6.8 6.7 6.7 7.0 7.3 7.3 7.3
4.6 4.3 4.4 4.4 5.2 6.1 6.2 6.0 5.8 5.7 6.2 5.9 6.1 5.8 5.7 5.6 5.5 5.7 5.7 5.6 5.3 5.4 5.3 5.3 5.2 5.4 5.5 5.4 5.4 5.9 6.2 6.2 6.4 6.6 6.8 6.9 6.9 6.9 6.9 6.9 6.9 7.0 7.2 7.4
4.4 4.3 4.4 4.5 4.5 5.8 5.6 5.3 5.9 5.3 5.5 5.7 5.6 5.4 5.4 5.5 5.5 5.9 5.8 5.5 5.4 5.3 5.3 5.3 5.2 5.3 5.5 5.6 5.5 5.8 6.2 6.3 6.5 6.7 6.8 6.8 6.8 6.8 6.9 6.9 6.9 6.9 6.9 7.2
4.2 4.1 4.2 4.6 4.5 5.3 5.7 5.1 5.3 5.3 5.4 4.9 4.7 4.9 4.7 4.8 5.1 5.0 5.0 5.1 5.2 5.4 5.4 5.6 5.6 5.7 5.8 5.8 5.8 5.6 6.2 6.3 6.5 6.7 6.8 6.8 6.8 6.7 6.7 6.6 6.7 6.8 6.9 7.1
4.9 4.5 4.4 4.5 4.6 4.7 5.2 5.3 5.1 5.0 4.6 4.4 4.2 4.2 4.1 4.1 4.3 4.5 4.5 4.6 4.8 4.9 5.2 5.5 5.8 6.1 5.9 6.1 6.0 5.8 6.1 6.3 6.7 6.7 6.7 6.7 6.6 6.6 6.7 6.8 7.0 7.1 7.2 7.3
5.0 5.2 5.3 5.4 5.3 4.9 5.1 4.9 4.6 4.2 4.0 4.1 4.0 3.8 3.9 4.0 4.0 4.0 4.2 4.5 4.8 4.9 5.1 5.4 5.6 5.9 6.3 6.3 6.1 6.3 6.5 6.5 6.8 6.9 6.8 6.7 6.7 6.7 6.9 7.2 7.3 7.5 7.6 7.7
5.2 4.9 5.0 4.7 5.4 5.1 5.1 4.5 4.1 3.7 3.6 3.6 3.5 3.4 3.7 3.8 3.9 4.0 4.3 4.6 4.9 5.1 5.2 5.4 5.5 5.8 6.3 6.6 6.5 6.4 6.7 6.7 7.1 7.1 7.1 6.9 7.1 7.2 7.3 7.4 7.5 7.6 7.6 7.7
5.4 4.9 4.7 4.6 4.7 4.7 4.7 4.2 4.0 3.6 3.5 3.6 3.6 3.7 3.7 3.8 3.9 4.1 4.2 4.5 4.8 5.0 5.2 5.5 5.7 5.9 6.3 6.7 6.7 6.7 6.8 7.1 7.4 7.5 7.4 7.4 7.4 7.6 7.7 7.7 7.8 7.9 7.9 7.8
5.0 4.6 4.6 4.7 4.0 4.2 4.1 4.2 4.2 3.6 4.2 4.3 4.3 4.5 4.6 4.0 4.1 4.5 4.8 4.9 5.0 5.0 5.2 5.5 5.9 6.3 6.5 6.5 6.8 7.1 7.2 7.5 7.6 7.7 7.7 7.6 7.7 7.8 7.8 7.9 8.0 8.1 8.2 8.2
Wind_Speed
17 13 12 11 10 9 7 7 10 8 5 1 6 8 8 6 6 8 10 10 12 14 15 16 16 16 16 16 17 18 18 17 14 12 12 12 10 10 9 15 18 17 24 18
15 15 9 7 8 8 7 6 8 6 6 5 3 8 7 5 5 7 8 10 10 11 12 14 15 16 16 16 17 17 18 17 15 12 11 11 11 9 9 13 20 23 13 21
12 8 6 6 7 10 11 7 4 6 2 1 4 9 9 7 5 6 8 8 10 11 12 13 14 15 15 16 16 16 17 17 16 16 12 12 12 11 9 12 12 16 20 21
12 5 5 8 8 8 3 5 3 3 6 1 1 1 9 6 5 5 6 8 9 11 12 12 13 13 14 14 14 15 16 16 15 20 14 16 11 12 10 9 10 12 22 19
6 9 5 7 6 6 5 3 3 4 6 4 5 7 10 5 5 2 3 5 7 8 10 13 14 13 12 13 13 13 15 15 15 15 16 13 14 11 11 11 14 14 17 22
11 6 9 4 1 4 2 4 5 5 3 6 5 5 10 5 5 6 1 5 8 12 13 13 14 11 11 11 12 12 13 14 15 14 15 16 16 15 13 13 11 10 10 11
9 7 5 5 4 2 5 4 3 3 4 2 6 6 9 4 3 5 8 9 11 13 13 14 15 12 11 11 11 12 13 13 14 14 15 15 16 16 16 14 12 15 10 11
5 5 6 5 6 4 3 4 1 4 3 3 7 5 5 3 3 3 5 8 12 14 12 13 12 12 11 11 11 12 13 14 13 14 14 14 15 11 11 14 11 10 11 12
3 4 5 5 6 5 2 1 4 3 1 4 2 6 4 4 2 1 6 7 8 10 10 12 13 9 11 10 10 11 13 13 14 14 13 13 13 14 13 15 13 11 13 11
2 5 4 4 3 5 5 3 2 2 0 4 5 8 2 8 2 3 6 7 7 8 9 11 11 9 10 9 9 10 11 13 13 14 12 12 14 14 13 13 14 14 14 16
5 1 6 3 4 1 3 3 2 1 3 3 5 2 6 5 1 4 5 5 7 8 9 10 10 7 7 9 7 9 10 13 13 13 13 13 13 14 14 13 13 13 14 15
4 1 4 3 4 3 2 2 5 2 3 5 5 6 8 5 1 4 5 4 6 8 9 9 9 8 9 9 8 9 8 10 12 13 13 13 13 13 13 14 15 16 14 16
7 4 3 5 5 3 3 2 3 2 3 10 4 1 7 5 7 5 7 7 6 8 10 9 8 9 9 10 9 9 9 10 12 13 12 12 13 13 13 14 14 14 14 14
2 4 3 3 1 5 4 8 6 5 4 5 14 16 10 10 11 8 8 8 8 8 10 9 9 9 9 10 10 10 10 10 12 13 12 12 12 13 13 13 14 14 13 14
2 2 0 5 9 10 9 10 13 15 13 7 8 13 13 14 12 11 9 11 11 11 10 9 9 10 11 11 11 10 9 10 11 12 12 12 12 13 13 14 14 14 13 13
4 0 3 5 7 9 14 17 17 19 20 22 22 25 19 12 10 12 11 12 13 12 12 12 11 11 12 12 11 9 9 10 10 11 12 12 12 13 13 13 14 14 14 13
6 3 2 3 4 9 11 16 19 18 18 17 17 19 14 15 14 12 13 12 13 13 13 13 12 12 10 12 10 9 9 10 10 11 11 11 12 12 12 13 13 13 14 13
6 7 3 3 4 4 3 1 4 6 10 14 16 17 16 14 14 14 12 12 16 15 13 13 11 11 11 11 11 9 9 10 11 10 11 11 12 12 13 12 13 13 12 12
6 7 3 3 5 13 14 3 8 5 11 9 11 11 12 12 14 14 17 16 15 14 11 12 12 12 11 12 11 10 10 11 10 10 10 11 11 12 13 13 13 13 12 12
8 9 5 3 3 4 4 4 3 5 10 7 7 8 12 12 11 11 15 15 13 12 14 13 14 14 12 12 11 10 11 11 11 9 9 10 11 12 13 13 13 12 12 13
8 6 10 9 6 8 7 1 1 5 4 8 9 13 15 13 12 18 19 19 20 20 22 21 18 16 16 12 9 11 12 12 9 8 9 10 11 11 12 13 12 12 12 12
10 8 5 8 4 7 7 2 5 9 10 13 15 16 18 18 19 20 21 22 23 24 24 24 21 19 14 16 9 11 13 10 7 9 10 11 11 10 10 13 12 13 12 12
7 7 3 8 5 6 3 7 11 11 14 16 17 16 18 20 20 21 21 22 22 22 20 19 18 20 17 12 10 10 11 9 8 10 11 11 12 11 11 11 12 10 11 10
9 6 4 4 8 9 6 11 9 10 15 18 19 19 20 21 21 22 21 20 20 20 20 19 18 20 18 13 10 9 10 9 9 10 11 11 12 11 12 9 9 9 9 9
3 5 7 12 13 10 6 9 14 16 17 17 19 20 21 21 22 22 20 20 19 19 19 19 18 18 18 13 8 8 9 8 9 10 10 11 10 11 11 11 10 10 11 9
8 8 7 6 9 6 10 13 16 17 19 20 21 23 23 22 23 23 21 20 18 19 18 18 19 20 13 8 10 10 9 8 9 10 9 8 9 10 10 11 10 9 11 12
Wind_Direction
44 86 68 60 45 60 74 106 97 79 35 99 90 112 104 81 57 46 46 36 23 19 22 22 25 22 16 17 12 7 3 6 0 356 346 344 340 330 322 316 312 272 243 221
87 71 65 62 75 78 79 111 88 108 53 270 170 129 112 85 74 55 27 37 33 21 22 20 19 17 18 16 15 10 5 3 6 358 342 341 328 332 322 340 345 353 297 256
78 87 57 72 87 82 51 39 36 359 48 78 218 163 170 130 124 61 48 31 26 28 12 14 11 13 9 13 10 9 6 4 5 356 351 348 334 338 351 338 334 337 326 331
67 79 93 86 65 318 106 16 302 267 251 269 238 100 172 136 136 85 45 28 20 11 4 2 2 5 3 10 4 3 4 8 5 358 354 351 345 339 334 337 329 331 336 350
95 61 74 73 39 334 58 304 271 257 258 237 162 257 113 167 197 105 28 5 8 359 358 346 341 349 351 7 359 358 357 6 7 360 358 352 352 340 332 333 336 333 332 337
101 87 41 47 56 11 103 192 198 225 251 239 105 310 136 124 9 328 6 332 334 335 336 333 323 333 345 359 354 354 358 358 4 1 360 354 352 342 342 341 334 344 334 332
116 74 100 12 231 209 197 223 221 212 203 294 115 269 59 36 335 326 333 330 320 333 336 332 333 323 342 351 353 351 357 355 1 358 356 357 351 345 343 348 342 336 339 334
177 164 358 10 22 355 31 333 302 254 293 341 150 240 99 25 316 307 288 322 342 351 346 345 335 342 349 350 353 355 351 352 359 357 354 353 352 348 343 346 346 338 339 325
140 111 103 51 38 313 69 109 3 305 241 267 207 119 212 174 150 354 340 335 354 355 351 345 344 2 347 345 348 354 347 351 355 356 353 353 351 348 345 341 344 348 344 331
122 129 206 128 252 63 1 81 205 61 308 270 274 239 213 179 198 343 339 350 349 351 348 349 339 15 317 336 343 345 351 348 353 353 352 352 347 346 343 340 342 345 344 341
129 132 147 191 210 148 150 144 89 328 303 285 298 26 86 137 155 326 332 339 346 343 343 348 345 346 331 333 340 334 353 346 351 349 349 348 346 343 343 342 344 345 338 342
69 159 167 122 106 316 311 192 187 238 183 254 292 294 120 139 288 288 308 311 331 326 326 336 338 328 326 335 333 329 342 343 346 345 344 344 344 342 343 342 343 344 345 341
166 167 152 174 170 190 230 122 99 98 266 245 246 274 150 160 256 268 285 297 293 315 319 321 324 316 315 322 326 322 329 340 339 340 339 340 343 341 339 340 341 341 343 342
170 199 225 316 74 113 169 197 201 202 211 258 237 269 271 237 264 292 295 289 290 304 304 315 322 319 317 317 318 316 318 331 334 336 337 337 338 338 337 337 338 338 341 339
209 191 268 253 247 245 233 200 198 216 224 236 276 303 311 314 304 296 295 283 276 287 295 304 313 315 309 306 310 305 321 324 332 327 331 332 333 331 334 337 335 336 338 339
159 205 284 261 250 264 269 260 241 228 227 247 262 275 281 294 286 291 278 286 285 286 293 303 301 308 311 312 308 308 304 318 321 321 322 326 329 329 330 330 331 331 335 337
165 153 207 268 336 317 278 258 239 245 238 243 255 269 296 297 286 276 268 278 287 289 291 296 295 299 311 309 305 290 306 306 312 314 314 322 324 324 324 326 325 331 330 334
185 162 176 275 290 260 53 41 2 275 267 260 263 271 277 280 286 287 271 282 288 276 279 299 303 307 303 309 300 299 296 301 303 310 311 320 323 319 320 320 322 324 324 327
199 181 207 244 245 292 287 299 235 256 284 296 284 267 286 283 275 272 268 269 264 273 290 287 283 281 284 292 298 293 294 296 302 305 315 319 317 315 316 316 323 319 320 320
199 222 213 191 258 259 82 83 342 311 276 55 3 328 318 310 292 299 333 332 313 290 291 287 288 285 280 275 276 285 286 294 295 312 312 307 310 308 310 314 314 316 313 312
178 209 223 220 251 273 315 182 28 249 25 349 337 322 317 303 299 313 313 303 297 293 291 291 283 276 277 259 262 271 279 284 300 307 298 302 302 303 305 305 303 309 310 311
177 180 192 220 241 259 130 153 233 351 318 315 314 310 307 301 298 297 295 293 294 293 291 290 288 283 250 270 253 270 277 292 304 293 295 295 298 301 301 300 304 304 307 308
202 210 215 194 217 129 190 282 303 312 309 311 310 310 303 299 297 295 295 295 292 289 289 286 286 284 281 280 254 252 277 287 284 287 289 296 300 299 297 306 297 304 303 301
208 225 210 247 255 267 305 327 322 340 324 317 312 305 300 298 299 296 295 295 296 292 290 284 287 285 280 249 243 250 268 273 275 284 291 296 295 299 295 294 298 294 296 299
17 169 236 256 268 286 295 348 341 325 315 318 317 310 303 299 295 296 295 295 296 296 291 286 284 281 278 258 247 255 256 261 271 281 287 291 291 295 299 293 292 289 288 287
243 220 247 266 39 345 316 336 323 338 335 326 317 311 306 302 300 299 295 297 297 294 292 288 284 283 270 254 255 246 250 261 274 282 285 290 297 293 296 295 294 264 244 241